Location: Limerick
(52.6800°N, 8.6400°W)
Time: 04:04:52
(UTC+00:00)

Amateur Radio Satellites - All Passes

Search period start: 01 February 2015 03:34
Search period end: 02 February 2015 03:34
Location: Limerick, 52.6800°N, 8.6400°W

Satellite Date Start Highest point End Downlink Frequencies (MHz)
Time Altitude Azimuth
M-CUBED/EXP-1 PRIME 01 Feb 03:36:48 03:39:55 23° 259° (W) 03:42:49 437.505
PCSat 01 Feb 03:37:34 03:41:37 23° 110° (ESE) 03:45:50 145.827
GONETS M04 01 Feb 03:39:10 03:47:02 34° 301° (WNW) 03:54:44
YUBILEINY 01 Feb 03:44:23 03:48:19 14° 34° (NE) 03:52:37 435.215
STARS 01 Feb 03:51:54 03:55:03 18° 271° (W) 03:58:08 437.465
HORYU 2 01 Feb 04:02:31 04:06:56 57° 101° (ESE) 04:11:19 437.375
KKS-1 01 Feb 04:07:50 04:08:17 10° 278° (W) 04:08:29 437.445
AUBIESAT-1 01 Feb 04:09:14 04:11:01 13° 264° (W) 04:12:38 437.475
JAS-2 01 Feb 04:10:40 04:14:47 21° 88° (E) 04:19:23 435.910
Gurwin Techsat 1B 01 Feb 04:15:01 04:20:10 50° 294° (WNW) 04:25:17 435.225
Oscar 19 01 Feb 04:19:54 04:23:15 17° 307° (NW) 04:26:27 437.125/150
AO-7 01 Feb 04:23:33 04:31:27 45° 98° (E) 04:39:21 29.400- 29.500
MOZHAYETS 4 01 Feb 04:25:05 04:29:41 89° 51° (NE) 04:34:18
STRAND 1 01 Feb 04:28:15 04:30:47 14° 49° (NE) 04:33:28 437.568
ITAMSAT 1 01 Feb 04:41:34 04:45:51 26° 302° (WNW) 04:50:04 435.822/435.867
DANDE 01 Feb 04:49:19 04:57:57 87° 102° (ESE) 05:06:21 436.750
CUBESAT XI-V 01 Feb 04:50:00 04:53:20 20° 58° (ENE) 04:56:46 437.345
BEESAT 2 01 Feb 04:57:38 05:01:04 24° 336° (NNW) 05:04:31 435.950
CUSAT 1 01 Feb 05:03:33 05:12:04 74° 286° (WNW) 05:20:03 437.405
AIST 2 01 Feb 05:07:39 05:11:31 31° 330° (NNW) 05:15:24 435.215
BEESAT 3 01 Feb 05:09:15 05:12:28 21° 340° (NNW) 05:15:40 437.485
PRISM 01 Feb 05:16:36 05:20:26 39° 67° (ENE) 05:24:19 437.425
PCSat 01 Feb 05:19:06 05:24:32 81° 309° (NW) 05:30:02 145.827
Cubesat XI-IV 01 Feb 05:28:18 05:30:40 13° 82° (E) 05:33:17 437.490
RS-15 01 Feb 05:29:26 05:40:08 67° 123° (ESE) 05:51:05 29.354- 29.394
HORYU 2 01 Feb 05:39:48 05:43:19 23° 300° (WNW) 05:46:45 437.375
YUBILEINY 01 Feb 05:40:10 05:48:22 42° 63° (ENE) 05:56:40 435.215
GONETS M04 01 Feb 05:44:54 05:47:33 11° 331° (NNW) 05:49:53
CUTE-I 01 Feb 05:46:34 05:50:10 18° 86° (E) 05:53:55 437.470
JAS-2 01 Feb 05:54:58 06:00:34 82° 288° (WNW) 06:06:52 435.910
Gurwin Techsat 1B 01 Feb 05:57:04 05:59:05 12° 314° (NW) 06:00:56 435.225
STRAND 1 01 Feb 06:04:05 06:09:07 63° 70° (ENE) 06:14:13 437.568
MOZHAYETS 4 01 Feb 06:05:12 06:07:41 14° 275° (W) 06:09:59
AO-7 01 Feb 06:16:26 06:24:36 58° 300° (WNW) 06:32:39 29.400- 29.500
CUBESAT XI-V 01 Feb 06:25:46 06:30:22 71° 258° (WSW) 06:35:02 437.345
DANDE 01 Feb 06:34:46 06:42:25 33° 303° (WNW) 06:49:35 436.750
BEESAT 2 01 Feb 06:38:01 06:40:38 16° 360° (N) 06:43:14 435.950
AIST 2 01 Feb 06:48:30 06:51:22 17° 353° (N) 06:54:13 435.215
BEESAT 3 01 Feb 06:49:24 06:52:00 16° 4° (N) 06:54:36 437.485
CUSAT 1 01 Feb 06:49:41 06:56:26 25° 308° (NW) 07:02:34 437.405
PRISM 01 Feb 06:52:36 06:56:07 26° 266° (W) 06:59:36 437.425
PCSat 01 Feb 07:04:08 07:08:46 27° 333° (NNW) 07:13:23 145.827
Cubesat XI-IV 01 Feb 07:06:28 07:11:52 72° 103° (ESE) 07:17:16 437.490
CUTE-I 01 Feb 07:25:37 07:31:02 85° 290° (WNW) 07:36:26 437.470
YUBILEINY 01 Feb 07:37:06 07:45:42 60° 268° (W) 07:54:15 435.215
JAS-2 01 Feb 07:41:16 07:45:08 19° 306° (NW) 07:49:06 435.910
RS-15 01 Feb 07:42:11 07:52:59 58° 332° (NNW) 08:04:03 29.354- 29.394
STRAND 1 01 Feb 07:44:42 07:48:48 23° 270° (W) 07:52:50 437.568
GOMX 1 01 Feb 08:07:03 08:10:00 15° 81° (E) 08:13:05 467.674
DOVE 4 01 Feb 08:07:19 08:07:37 10° 77° (ENE) 08:08:12 437.250
CUBESAT XI-V 01 Feb 08:07:41 08:08:49 11° 279° (W) 08:09:43 437.345
AO-7 01 Feb 08:09:57 08:15:54 22° 324° (NW) 08:21:40 29.400- 29.500
BEESAT 2 01 Feb 08:16:47 08:20:11 23° 23° (NNE) 08:23:36 435.950
CANX-2 01 Feb 08:18:57 08:21:16 15° 86° (E) 08:23:44 2200.000
ANTELSAT 01 Feb 08:21:28 08:23:29 13° 53° (NE) 08:25:39 437.575/2403.000
DANDE 01 Feb 08:25:47 08:28:46 12° 328° (NNW) 08:31:22 436.750
BRITE-PL 01 Feb 08:25:52 08:30:44 29° 90° (E) 08:35:32 437.365/2234.400
TIGRISAT 01 Feb 08:27:02 08:29:21 14° 54° (NE) 08:31:49 435.000
BEESAT 3 01 Feb 08:27:49 08:31:23 27° 27° (NNE) 08:34:59 437.485
AIST 2 01 Feb 08:28:11 08:31:25 20° 17° (NNE) 08:34:40 435.215
CUTE 1.7 + AOD 2 01 Feb 08:42:00 08:45:16 22° 91° (E) 08:48:36 437.475
POLYITAN 1 01 Feb 08:43:48 08:45:17 12° 53° (NE) 08:46:56 437.675
Cubesat XI-IV 01 Feb 08:47:14 08:51:34 25° 303° (WNW) 08:55:48 437.490
HO-68 01 Feb 08:49:08 08:55:34 35° 94° (E) 09:02:04 435.675
PCSat 01 Feb 08:50:19 08:53:59 18° 359° (N) 08:57:38 145.827
Oscar 11 01 Feb 08:55:55 08:56:50 11° 83° (E) 08:58:00 145.826/435.025
POPSAT HIP 1 01 Feb 09:00:56 09:03:27 16° 56° (NE) 09:06:07 437.405
DUCHIFAT 1 01 Feb 09:01:45 09:04:15 16° 56° (ENE) 09:06:54 145.980
CINEMA 3 01 Feb 09:06:38 09:10:00 19° 86° (E) 09:13:24 145.822/145.860
CUTE-I 01 Feb 09:06:42 09:10:28 19° 307° (NW) 09:14:06 437.470
SEEDS 01 Feb 09:08:03 09:11:51 32° 95° (E) 09:15:38 437.485
UNISAT 6 01 Feb 09:19:10 09:23:23 34° 65° (ENE) 09:27:35 437.425
VERMONT LUNAR 01 Feb 09:29:50 09:30:43 11° 173° (S) 09:31:38 437.305
COMPASS 1 01 Feb 09:30:03 09:34:04 44° 98° (E) 09:38:04 437.405
UKube-1 01 Feb 09:31:59 09:34:12 14° 86° (E) 09:36:35 .
DELFI C3 01 Feb 09:32:22 09:35:13 19° 90° (E) 09:38:10 145.870
NANOSAT C BR1 01 Feb 09:35:39 09:39:19 29° 63° (ENE) 09:43:04 145.865
YUBILEINY 01 Feb 09:36:02 09:40:47 15° 290° (WNW) 09:45:05 435.215
DOVE 4 01 Feb 09:41:30 09:46:43 59° 100° (E) 09:51:39 437.250
GOMX 1 01 Feb 09:43:38 09:49:09 80° 103° (ESE) 09:54:23 467.674
SO-50 01 Feb 09:46:32 09:50:07 23° 116° (ESE) 09:53:54 436.795
GONETS M04 01 Feb 09:47:15 09:52:14 16° 40° (NE) 09:57:32
QB50P2 01 Feb 09:51:24 09:55:24 39° 67° (ENE) 09:59:27 145.880/145.840
ZACube-1 01 Feb 09:52:11 09:55:28 20° 89° (E) 09:58:46 437.345
CANX-2 01 Feb 09:53:35 09:57:50 76° 288° (WNW) 10:02:03 2200.000
AAUSAT CUBESAT 2 01 Feb 09:53:55 09:58:05 67° 102° (ESE) 10:02:13 437.432
BEESAT 2 01 Feb 09:54:48 09:59:02 78° 45° (NE) 10:03:13 435.950
ANTELSAT 01 Feb 09:54:52 09:59:32 66° 72° (ENE) 10:04:10 437.575/2403.000
BUGSAT 1 01 Feb 09:55:22 09:59:06 33° 65° (ENE) 10:02:55 437.445
DX 1 01 Feb 09:55:36 09:59:08 23° 92° (E) 10:02:43 434.975-435.025
RS-15 01 Feb 09:57:19 10:07:49 45° 4° (N) 10:18:41 29.354- 29.394
CUBEBUG 2 01 Feb 09:57:44 10:01:49 31° 93° (E) 10:05:47 437.445
QB50P1 01 Feb 09:59:30 10:03:36 45° 68° (ENE) 10:07:45 145.935-145.965
TIGRISAT 01 Feb 10:00:44 10:05:25 72° 72° (ENE) 10:10:05 435.000
FUNcube-1 01 Feb 10:02:52 10:06:30 25° 91° (E) 10:10:06 145.935
AO-7 01 Feb 10:03:01 10:05:36 12° 352° (N) 10:08:07 29.400- 29.500
BRITE-PL 01 Feb 10:04:00 10:09:38 59° 291° (WNW) 10:15:02 437.365/2234.400
BEESAT 3 01 Feb 10:05:47 10:09:59 80° 229° (SW) 10:14:08 437.485
AIST 2 01 Feb 10:06:40 10:10:55 53° 40° (NE) 10:15:07 435.215
50 SAT 01 Feb 10:15:05 10:17:11 14° 86° (E) 10:19:25 437.505
POLYITAN 1 01 Feb 10:16:12 10:20:29 65° 72° (ENE) 10:24:48 437.675
CUTE 1.7 + AOD 2 01 Feb 10:17:24 10:21:31 50° 291° (WNW) 10:25:36 437.475
Oscar 11 01 Feb 10:29:33 10:33:54 77° 103° (ESE) 10:38:13 145.826/435.025
UWE-3 01 Feb 10:31:01 10:35:28 52° 99° (E) 10:39:46 435.000/436.395/437.385
AIST 1 01 Feb 10:32:57 10:35:56 19° 86° (E) 10:39:03
POPSAT HIP 1 01 Feb 10:34:30 10:38:49 87° 255° (WSW) 10:43:11 437.405
PCSat 01 Feb 10:34:46 10:39:14 25° 24° (NNE) 10:43:44 145.827
AISAT 01 Feb 10:34:47 10:38:28 25° 92° (E) 10:42:12 437.250
DUCHIFAT 1 01 Feb 10:35:17 10:39:35 87° 254° (WSW) 10:43:56 145.980
HO-68 01 Feb 10:36:42 10:43:46 63° 296° (WNW) 10:50:48 435.675
CINEMA 3 01 Feb 10:42:56 10:47:50 71° 288° (WNW) 10:52:29 145.822/145.860
SEEDS 01 Feb 10:43:54 10:47:42 33° 294° (WNW) 10:51:27 437.485
PHONESAT 2.4 01 Feb 10:46:19 10:47:52 12° 180° (S) 10:49:24 2401.200-2431.200
ESTCUBE 1 01 Feb 10:48:03 10:50:55 17° 87° (E) 10:53:55 437.505/2401.250
Oscar 19 01 Feb 10:48:32 10:49:56 11° 46° (NE) 10:51:30 437.125/150
UNISAT 6 01 Feb 10:55:43 11:00:09 39° 264° (W) 11:04:32 437.425
CUBEBUG 1 01 Feb 11:00:24 11:03:39 20° 89° (E) 11:06:59 437.445
VELOX 1 01 Feb 11:01:03 11:05:18 40° 97° (E) 11:09:33 145.980
COMPASS 1 01 Feb 11:06:09 11:09:38 25° 297° (WNW) 11:13:01 437.405
HUMSAT D 01 Feb 11:06:12 11:10:24 55° 100° (E) 11:14:32 437.325/437.525
UKube-1 01 Feb 11:06:39 11:11:03 85° 287° (WNW) 11:15:25 .
DELFI C3 01 Feb 11:06:51 11:10:50 54° 289° (WNW) 11:14:47 145.870
VERMONT LUNAR 01 Feb 11:07:16 11:07:53 10° 189° (S) 11:08:28 437.305
NANOSAT C BR1 01 Feb 11:11:02 11:15:06 40° 263° (W) 11:19:12 145.865
DOVE 4 01 Feb 11:19:44 11:24:09 27° 300° (WNW) 11:28:20 437.250
GOMX 1 01 Feb 11:22:29 11:26:42 23° 303° (WNW) 11:30:43 467.674
SO-50 01 Feb 11:25:36 11:30:16 73° 317° (NW) 11:35:05 436.795
QB50P2 01 Feb 11:27:39 11:31:26 29° 266° (W) 11:35:13 145.880/145.840
ZACube-1 01 Feb 11:27:52 11:32:17 58° 290° (WNW) 11:36:32 437.345
AAUSAT CUBESAT 2 01 Feb 11:30:27 11:33:22 18° 301° (WNW) 11:36:09 437.432
BUGSAT 1 01 Feb 11:30:51 11:34:37 32° 265° (W) 11:38:26 437.445
CANX-2 01 Feb 11:31:11 11:33:08 13° 305° (NW) 11:34:57 2200.000
DX 1 01 Feb 11:31:24 11:35:41 50° 292° (WNW) 11:39:56 434.975-435.025
ANTELSAT 01 Feb 11:33:17 11:36:48 20° 271° (W) 11:40:12 437.575/2403.000
BEESAT 2 01 Feb 11:33:51 11:36:49 18° 244° (WSW) 11:39:39 435.950
CUBEBUG 2 01 Feb 11:34:18 11:38:39 40° 294° (WNW) 11:42:47 437.445
QB50P1 01 Feb 11:36:08 11:39:44 25° 268° (W) 11:43:17 145.935-145.965
FUNcube-1 01 Feb 11:38:50 11:43:08 47° 291° (WNW) 11:47:17 145.935
TIGRISAT 01 Feb 11:39:23 11:42:43 18° 272° (W) 11:45:54 435.000
GONETS M04 01 Feb 11:43:21 11:51:47 52° 68° (ENE) 12:00:15
BRITE-PL 01 Feb 11:43:57 11:47:06 15° 311° (NW) 11:50:02 437.365/2234.400
BEESAT 3 01 Feb 11:45:24 11:47:31 13° 247° (WSW) 11:49:28 437.485
AIST 2 01 Feb 11:45:36 11:49:22 29° 240° (WSW) 11:53:03 435.215
50 SAT 01 Feb 11:48:49 11:52:54 75° 286° (WNW) 11:56:54 437.505
AO-7 01 Feb 11:51:01 11:54:50 14° 21° (NNE) 11:58:49 29.400- 29.500
POLYITAN 1 01 Feb 11:53:53 11:56:55 18° 272° (W) 11:59:51 437.675
Oscar 11 01 Feb 12:06:45 12:09:37 17° 302° (WNW) 12:12:23 145.826/435.025
UWE-3 01 Feb 12:08:03 12:11:46 25° 299° (WNW) 12:15:19 435.000/436.395/437.385
SPROUT 01 Feb 12:08:58 12:12:34 25° 92° (E) 12:16:13 437.525
AIST 1 01 Feb 12:09:05 12:13:16 54° 286° (WNW) 12:17:30
AISAT 01 Feb 12:10:59 12:15:23 50° 292° (WNW) 12:19:44 437.250
RS-15 01 Feb 12:11:14 12:22:23 67° 35° (NE) 12:34:03 29.354- 29.394
POPSAT HIP 1 01 Feb 12:13:34 12:15:29 12° 276° (W) 12:17:14 437.405
DUCHIFAT 1 01 Feb 12:14:21 12:16:13 12° 276° (W) 12:17:54 145.980
PCSat 01 Feb 12:18:07 12:23:36 71° 48° (NE) 12:29:01 145.827
CINEMA 3 01 Feb 12:21:34 12:24:14 14° 308° (NW) 12:26:42 145.822/145.860
Oscar 19 01 Feb 12:23:15 12:28:12 47° 66° (ENE) 12:33:12 437.125/150
ESTCUBE 1 01 Feb 12:23:51 12:28:24 74° 287° (WNW) 12:32:55 437.505/2401.250
Gurwin Techsat 1B 01 Feb 12:24:43 12:28:12 18° 53° (NE) 12:31:49 435.225
HO-68 01 Feb 12:25:24 12:30:20 20° 318° (NW) 12:35:05 435.675
TISAT 1 01 Feb 12:34:47 12:38:52 40° 97° (E) 12:42:56 437.305
CUBEBUG 1 01 Feb 12:36:03 12:40:28 61° 289° (WNW) 12:44:52 437.445
VELOX 1 01 Feb 12:37:49 12:41:50 31° 296° (WNW) 12:45:46 145.980
HUMSAT D 01 Feb 12:42:36 12:45:54 22° 299° (WNW) 12:49:05 437.325/437.525
UKube-1 01 Feb 12:44:06 12:46:37 15° 305° (NW) 12:49:01 .
ITAMSAT 1 01 Feb 12:46:59 12:51:31 33° 61° (ENE) 12:56:10 435.822/435.867
SWISSCUBE 01 Feb 12:52:39 12:55:08 14° 85° (E) 12:57:48 437.505
ZACube-1 01 Feb 13:06:34 13:07:47 11° 309° (NW) 13:08:49 437.345
BEESAT 01 Feb 13:07:19 13:10:29 18° 87° (E) 13:13:48 436.000
SO-50 01 Feb 13:07:32 13:11:34 26° 340° (NNW) 13:15:40 436.795
ITUPSAT 1 01 Feb 13:13:07 13:16:32 20° 89° (E) 13:20:04 437.325
50 SAT 01 Feb 13:25:45 13:27:20 12° 306° (NW) 13:28:47 437.505
HORYU 2 01 Feb 13:31:52 13:34:56 19° 57° (ENE) 13:38:07 437.375
AO-7 01 Feb 13:38:08 13:45:10 32° 46° (NE) 13:52:18 29.400- 29.500
GONETS M04 01 Feb 13:40:29 13:48:41 47° 272° (W) 13:56:48
SPROUT 01 Feb 13:44:42 13:48:54 46° 292° (WNW) 13:53:04 437.525
DANDE 01 Feb 13:45:19 13:51:05 26° 52° (NE) 13:55:50 436.750
CUSAT 1 01 Feb 13:57:12 14:03:01 32° 57° (ENE) 14:07:36 437.405
PCSat 01 Feb 14:02:08 14:06:37 26° 248° (WSW) 14:11:01 145.827
Gurwin Techsat 1B 01 Feb 14:02:11 14:07:30 83° 73° (ENE) 14:12:52 435.225
ESTCUBE 1 01 Feb 14:02:14 14:04:36 14° 306° (NW) 14:06:49 437.505/2401.250
Oscar 19 01 Feb 14:03:07 14:07:47 32° 266° (W) 14:12:24 437.125/150
TISAT 1 01 Feb 14:10:51 14:14:36 29° 296° (WNW) 14:18:17 437.305
KKS-1 01 Feb 14:12:32 14:15:17 16° 87° (E) 14:18:11 437.445
CUBEBUG 1 01 Feb 14:14:29 14:16:03 12° 308° (NW) 14:17:27 437.445
RS-15 01 Feb 14:23:55 14:34:48 55° 242° (WSW) 14:46:04 29.354- 29.394
ITAMSAT 1 01 Feb 14:25:53 14:30:54 48° 261° (W) 14:35:59 435.822/435.867
SWISSCUBE 01 Feb 14:28:59 14:33:49 88° 107° (ESE) 14:38:37 437.505
JAS-2 01 Feb 14:31:26 14:34:41 17° 52° (NE) 14:38:04 435.910
BEESAT 01 Feb 14:44:10 14:48:58 76° 288° (WNW) 14:53:44 436.000
SO-50 01 Feb 14:49:58 14:53:34 20° 4° (N) 14:57:14 436.795
ITUPSAT 1 01 Feb 14:50:11 14:54:59 69° 288° (WNW) 14:59:45 437.325
O/OREOS (USA 219) 01 Feb 14:59:04 15:00:32 12° 98° (E) 15:02:15 437.305
HORYU 2 01 Feb 15:06:39 15:11:10 75° 256° (WSW) 15:15:41 437.375
DANDE 01 Feb 15:28:38 15:35:36 76° 261° (W) 15:40:43 436.750
AO-7 01 Feb 15:28:48 15:37:13 89° 249° (WSW) 15:45:39 29.400- 29.500
STARS 01 Feb 15:34:07 15:38:33 58° 101° (ESE) 15:42:55 437.465
CUTE-I 01 Feb 15:38:03 15:40:04 12° 46° (NE) 15:42:16 437.470
CUSAT 1 01 Feb 15:40:17 15:46:32 52° 266° (W) 15:51:08 437.405
GONETS M04 01 Feb 15:41:04 15:43:24 11° 295° (WNW) 15:45:09
AUBIESAT-1 01 Feb 15:43:03 15:45:18 17° 98° (E) 15:47:40 437.475
Gurwin Techsat 1B 01 Feb 15:44:30 15:48:15 19° 274° (W) 15:51:50 435.225
KKS-1 01 Feb 15:48:02 15:52:34 76° 288° (WNW) 15:57:03 437.445
SWISSCUBE 01 Feb 16:07:53 16:11:08 18° 305° (NW) 16:14:16 437.505
JAS-2 01 Feb 16:13:54 16:19:12 85° 74° (ENE) 16:24:26 435.910
MOZHAYETS 4 01 Feb 16:15:36 16:18:06 15° 85° (E) 16:20:46
BEESAT 01 Feb 16:23:23 16:26:08 15° 307° (NW) 16:28:45 436.000
ITUPSAT 1 01 Feb 16:29:36 16:32:08 14° 308° (NW) 16:34:30 437.325
SO-50 01 Feb 16:31:01 16:35:27 33° 28° (NNE) 16:39:56 436.795
O/OREOS (USA 219) 01 Feb 16:34:43 16:39:14 77° 117° (ESE) 16:43:48 437.305
RS-15 01 Feb 16:38:48 16:44:50 15° 264° (W) 16:50:10 29.354- 29.394
M-CUBED/EXP-1 PRIME 01 Feb 16:46:52 16:50:13 85° 294° (WNW) 16:53:37 437.505
HORYU 2 01 Feb 16:47:18 16:48:44 11° 277° (W) 16:49:57 437.375
Cubesat XI-IV 01 Feb 16:55:19 17:00:11 38° 63° (ENE) 17:05:09 437.490
STARS 01 Feb 17:11:12 17:14:43 23° 300° (WNW) 17:18:09 437.465
DANDE 01 Feb 17:13:54 17:17:32 15° 286° (WNW) 17:20:29 436.750
CUTE-I 01 Feb 17:13:57 17:19:05 51° 67° (ENE) 17:24:17 437.470
AUBIESAT-1 01 Feb 17:17:19 17:20:31 43° 297° (WNW) 17:23:45 437.475
AO-7 01 Feb 17:24:30 17:31:16 25° 272° (W) 17:37:49 29.400- 29.500
KKS-1 01 Feb 17:26:09 17:28:33 14° 307° (NW) 17:30:48 437.445
HO-68 01 Feb 17:40:19 17:44:19 16° 38° (NE) 17:48:31 435.675
MOZHAYETS 4 01 Feb 17:51:27 17:56:03 85° 286° (WNW) 18:00:38
JAS-2 01 Feb 18:01:54 18:05:13 16° 275° (W) 18:08:19 435.910
BRITE-PL 01 Feb 18:07:16 18:09:44 14° 48° (NE) 18:12:27 437.365/2234.400
STRAND 1 01 Feb 18:10:06 18:12:34 14° 83° (E) 18:15:15 437.568
SO-50 01 Feb 18:11:31 18:16:27 76° 229° (SW) 18:21:22 436.795
O/OREOS (USA 219) 01 Feb 18:15:38 18:19:13 22° 319° (NW) 18:22:47 437.305
CUBESAT XI-V 01 Feb 18:17:09 18:20:36 20° 89° (E) 18:24:11 437.345
M-CUBED/EXP-1 PRIME 01 Feb 18:23:51 18:24:45 11° 310° (NW) 18:25:32 437.505
PRISM 01 Feb 18:28:57 18:32:33 28° 95° (E) 18:36:13 437.425
Cubesat XI-IV 01 Feb 18:35:15 18:40:18 42° 263° (W) 18:45:23 437.490
YUBILEINY 01 Feb 18:49:29 18:57:05 37° 84° (E) 19:04:52 435.215
CUTE-I 01 Feb 18:54:43 18:59:27 31° 267° (W) 19:04:09 437.470
COMPASS 1 01 Feb 18:55:01 18:56:19 11° 54° (NE) 18:57:45 437.405
DOVE 4 01 Feb 19:16:28 19:20:24 22° 57° (ENE) 19:24:31 437.250
AAUSAT CUBESAT 2 01 Feb 19:17:16 19:19:42 16° 58° (ENE) 19:22:16 437.432
CANX-2 01 Feb 19:17:29 19:20:54 24° 62° (ENE) 19:24:21 2200.000
GOMX 1 01 Feb 19:20:06 19:24:38 30° 61° (ENE) 19:29:23 467.674
HO-68 01 Feb 19:23:48 19:30:35 50° 61° (ENE) 19:37:26 435.675
CUBEBUG 2 01 Feb 19:28:48 19:30:09 11° 51° (NE) 19:31:41 437.445
MOZHAYETS 4 01 Feb 19:29:58 19:32:41 15° 305° (NW) 19:35:18
CUTE 1.7 + AOD 2 01 Feb 19:40:33 19:44:25 34° 66° (ENE) 19:48:18 437.475
BRITE-PL 01 Feb 19:41:57 19:47:07 54° 68° (ENE) 19:52:37 437.365/2234.400
STRAND 1 01 Feb 19:47:33 19:52:44 78° 104° (ESE) 19:57:55 437.568
SO-50 01 Feb 19:53:24 19:56:21 16° 248° (WSW) 19:59:07 436.795
CUBESAT XI-V 01 Feb 19:53:52 19:58:32 64° 288° (WNW) 20:03:11 437.345
Oscar 11 01 Feb 19:55:29 19:58:35 20° 59° (ENE) 20:01:46 145.826/435.025
UWE-3 01 Feb 19:59:31 20:02:21 16° 56° (NE) 20:05:19 435.000/436.395/437.385
PRISM 01 Feb 20:04:19 20:08:11 37° 294° (WNW) 20:12:02 437.425
SEEDS 01 Feb 20:05:53 20:09:59 49° 70° (ENE) 20:14:07 437.485
CINEMA 3 01 Feb 20:13:29 20:18:01 35° 64° (ENE) 20:22:37 145.822/145.860
DELFI C3 01 Feb 20:26:15 20:29:41 27° 64° (ENE) 20:33:10 145.870
COMPASS 1 01 Feb 20:27:08 20:31:20 67° 73° (ENE) 20:35:32 437.405
HUMSAT D 01 Feb 20:30:35 20:32:55 15° 56° (NE) 20:35:21 437.325/437.525
VELOX 1 01 Feb 20:30:53 20:33:02 14° 53° (NE) 20:35:20 145.980
UKube-1 01 Feb 20:32:14 20:35:50 26° 62° (ENE) 20:39:30 .
AIST 1 01 Feb 20:34:18 20:35:39 11° 55° (NE) 20:37:11
YUBILEINY 01 Feb 20:44:52 20:53:30 66° 287° (WNW) 21:02:14 435.215
AAUSAT CUBESAT 2 01 Feb 20:50:39 20:54:52 83° 256° (WSW) 20:59:06 437.432
DOVE 4 01 Feb 20:52:25 20:57:38 79° 257° (WSW) 21:03:02 437.250
CANX-2 01 Feb 20:52:26 20:56:38 50° 261° (W) 21:00:48 2200.000
ZACube-1 01 Feb 20:53:34 20:57:44 35° 65° (ENE) 21:01:56 437.345
DX 1 01 Feb 20:56:45 21:00:53 43° 67° (ENE) 21:05:04 434.975-435.025
GOMX 1 01 Feb 20:57:16 21:02:28 58° 261° (W) 21:07:55 467.674
CUBEBUG 2 01 Feb 21:01:18 21:05:57 54° 69° (ENE) 21:10:38 437.445
FUNcube-1 01 Feb 21:04:05 21:08:25 42° 67° (ENE) 21:12:45 145.935
50 SAT 01 Feb 21:07:54 21:11:02 22° 61° (ENE) 21:14:14 437.505
HO-68 01 Feb 21:11:37 21:18:28 46° 262° (W) 21:25:17 435.675
CUTE 1.7 + AOD 2 01 Feb 21:16:29 21:20:23 33° 265° (W) 21:24:15 437.475
BRITE-PL 01 Feb 21:21:14 21:25:56 31° 270° (W) 21:30:51 437.365/2234.400
STRAND 1 01 Feb 21:27:33 21:31:28 22° 304° (NW) 21:35:18 437.568
Oscar 11 01 Feb 21:30:04 21:34:24 66° 258° (WSW) 21:38:44 145.826/435.025
ISS 01 Feb 21:31:06 21:33:30 19° 146° (SE) 21:35:58 145.825
CUBESAT XI-V 01 Feb 21:33:07 21:35:11 13° 308° (NW) 21:37:07 437.345
UWE-3 01 Feb 21:33:35 21:38:19 86° 71° (ENE) 21:43:02 435.000/436.395/437.385
AISAT 01 Feb 21:38:24 21:42:39 45° 67° (ENE) 21:46:59 437.250
SEEDS 01 Feb 21:42:43 21:46:07 22° 269° (W) 21:49:26 437.485
CINEMA 3 01 Feb 21:50:23 21:55:09 42° 264° (W) 21:59:59 145.822/145.860
ESTCUBE 1 01 Feb 21:53:16 21:57:12 31° 64° (ENE) 22:01:12 437.505/2401.250
TISAT 1 01 Feb 22:00:33 22:01:59 12° 53° (NE) 22:03:33 437.305
DELFI C3 01 Feb 22:01:00 22:04:49 38° 263° (W) 22:08:39 145.870
CUBEBUG 1 01 Feb 22:02:15 22:06:11 34° 65° (ENE) 22:10:12 437.445
HUMSAT D 01 Feb 22:03:45 22:08:07 85° 72° (ENE) 22:12:30 437.325/437.525
VELOX 1 01 Feb 22:04:29 22:08:56 74° 72° (ENE) 22:13:25 145.980
COMPASS 1 01 Feb 22:04:45 22:07:33 17° 272° (W) 22:10:13 437.405
UKube-1 01 Feb 22:07:39 22:11:50 46° 261° (W) 22:16:03 .
AIST 1 01 Feb 22:09:54 22:14:16 71° 77° (ENE) 22:18:39
POPSAT HIP 1 01 Feb 22:16:27 22:17:31 11° 83° (E) 22:18:48 437.405
DUCHIFAT 1 01 Feb 22:16:54 22:17:56 11° 83° (E) 22:19:12 145.980
ZACube-1 01 Feb 22:29:49 22:34:06 37° 264° (W) 22:38:23 437.345
AAUSAT CUBESAT 2 01 Feb 22:29:56 22:31:19 11° 276° (W) 22:32:31 437.432
DOVE 4 01 Feb 22:33:23 22:36:23 15° 278° (W) 22:39:13 437.250
DX 1 01 Feb 22:33:34 22:37:19 27° 266° (W) 22:41:03 434.975-435.025
CUBEBUG 2 01 Feb 22:38:58 22:42:58 25° 269° (W) 22:46:54 437.445
GOMX 1 01 Feb 22:40:42 22:41:57 11° 283° (WNW) 22:42:54 467.674
FUNcube-1 01 Feb 22:40:47 22:44:54 30° 267° (W) 22:48:57 145.935
50 SAT 01 Feb 22:41:48 22:45:52 53° 260° (W) 22:49:57 437.505
UNISAT 6 01 Feb 22:42:00 22:45:55 30° 93° (E) 22:49:47 437.425
YUBILEINY 01 Feb 22:46:14 22:52:31 21° 314° (NW) 22:58:35 435.215
NANOSAT C BR1 01 Feb 22:50:35 22:53:59 23° 91° (E) 22:57:26 145.865
GONETS M04 01 Feb 23:03:58 23:05:28 11° 65° (ENE) 23:07:33
ISS 01 Feb 23:06:20 23:09:33 56° 166° (SSE) 23:12:48 145.825
QB50P2 01 Feb 23:06:49 23:10:42 32° 95° (E) 23:14:35 145.880/145.840
BUGSAT 1 01 Feb 23:07:13 23:10:48 26° 93° (E) 23:14:26 437.445
SPROUT 01 Feb 23:08:47 23:12:50 40° 67° (ENE) 23:16:57 437.525
UWE-3 01 Feb 23:12:41 23:15:33 15° 275° (W) 23:18:15 435.000/436.395/437.385
QB50P1 01 Feb 23:14:44 23:18:46 37° 96° (E) 23:22:46 145.935-145.965
AISAT 01 Feb 23:15:40 23:19:30 27° 267° (W) 23:23:19 437.250
ANTELSAT 01 Feb 23:18:02 23:22:29 62° 101° (E) 23:26:48 437.575/2403.000
O/OREOS (USA 219) 01 Feb 23:21:00 23:23:52 16° 35° (NE) 23:26:50 437.305
TIGRISAT 01 Feb 23:23:33 23:28:02 68° 103° (ESE) 23:32:22 435.000
ESTCUBE 1 01 Feb 23:29:48 23:34:02 39° 263° (W) 23:38:17 437.505/2401.250
POLYITAN 1 01 Feb 23:31:57 23:36:14 54° 100° (E) 23:40:28 437.675
TISAT 1 01 Feb 23:32:49 23:37:03 66° 72° (ENE) 23:41:20 437.305
CUBEBUG 1 01 Feb 23:38:34 23:42:35 34° 264° (W) 23:46:37 437.445
HUMSAT D 01 Feb 23:42:12 23:44:35 14° 275° (W) 23:46:48 437.325/437.525
VELOX 1 01 Feb 23:43:13 23:46:07 16° 273° (W) 23:48:54 145.980
AIST 1 01 Feb 23:48:46 23:51:28 16° 276° (W) 23:54:01
POPSAT HIP 1 01 Feb 23:49:55 23:54:17 78° 104° (ESE) 23:58:35 437.405
DUCHIFAT 1 01 Feb 23:50:19 23:54:39 78° 104° (ESE) 23:58:57 145.980
SWISSCUBE 02 Feb 00:04:31 00:08:42 32° 63° (ENE) 00:12:57 437.505
UNISAT 6 02 Feb 00:18:39 00:22:51 39° 294° (WNW) 00:26:55 437.425
BEESAT 02 Feb 00:19:18 00:23:42 39° 65° (ENE) 00:28:09 436.000
ITUPSAT 1 02 Feb 00:25:30 00:29:58 43° 66° (ENE) 00:34:31 437.325
NANOSAT C BR1 02 Feb 00:25:58 00:30:10 50° 291° (WNW) 00:34:19 145.865
BUGSAT 1 02 Feb 00:42:24 00:46:30 44° 292° (WNW) 00:50:35 437.445
ISS 02 Feb 00:42:39 00:45:56 74° 185° (S) 00:49:14 145.825
QB50P2 02 Feb 00:42:42 00:46:41 35° 294° (WNW) 00:50:35 145.880/145.840
SPROUT 02 Feb 00:45:18 00:49:05 28° 267° (W) 00:52:51 437.525
QB50P1 02 Feb 00:50:46 00:54:37 31° 296° (WNW) 00:58:23 145.935-145.965
GONETS M04 02 Feb 00:52:01 01:00:09 47° 88° (E) 01:08:21
ANTELSAT 02 Feb 00:55:32 00:58:56 21° 301° (WNW) 01:02:11 437.575/2403.000
O/OREOS (USA 219) 02 Feb 00:59:38 01:04:14 66° 57° (ENE) 01:08:49 437.305
TIGRISAT 02 Feb 01:01:07 01:04:22 20° 302° (WNW) 01:07:29 435.000
STARS 02 Feb 01:02:21 01:05:20 18° 57° (ENE) 01:08:26 437.465
AUBIESAT-1 02 Feb 01:05:05 01:06:04 11° 50° (NE) 01:07:11 437.475
POLYITAN 1 02 Feb 01:08:27 01:11:54 23° 299° (WNW) 01:15:15 437.675
TISAT 1 02 Feb 01:10:27 01:13:23 17° 272° (W) 01:16:12 437.305
KKS-1 02 Feb 01:16:07 01:20:04 31° 63° (ENE) 01:24:03 437.445
POPSAT HIP 1 02 Feb 01:26:49 01:29:42 17° 303° (WNW) 01:32:28 437.405
DUCHIFAT 1 02 Feb 01:27:10 01:30:03 17° 303° (WNW) 01:32:47 145.980
BEESAT 2 02 Feb 01:33:46 01:36:51 21° 117° (ESE) 01:40:02 435.950
SWISSCUBE 02 Feb 01:41:57 01:46:30 42° 262° (W) 01:51:03 437.505
BEESAT 3 02 Feb 01:43:25 01:46:54 27° 120° (ESE) 01:50:29 437.485
AIST 2 02 Feb 01:50:34 01:52:52 15° 113° (ESE) 01:55:20 435.215
BEESAT 02 Feb 01:57:17 02:01:38 34° 264° (W) 02:05:59 436.000
ITUPSAT 1 02 Feb 02:03:47 02:08:02 31° 266° (W) 02:12:17 437.325
M-CUBED/EXP-1 PRIME 02 Feb 02:07:05 02:10:38 42° 63° (ENE) 02:13:59 437.505
Oscar 19 02 Feb 02:07:45 02:12:53 60° 101° (ESE) 02:17:58 437.125/150
Gurwin Techsat 1B 02 Feb 02:12:58 02:16:57 21° 88° (E) 02:21:02 435.225
ISS 02 Feb 02:19:09 02:22:12 36° 205° (SSW) 02:25:16 145.825
ITAMSAT 1 02 Feb 02:32:27 02:37:21 39° 97° (E) 02:42:16 435.822/435.867
AUBIESAT-1 02 Feb 02:36:49 02:40:33 77° 68° (ENE) 02:44:03 437.475
STARS 02 Feb 02:36:52 02:41:21 78° 256° (WSW) 02:45:51 437.465
O/OREOS (USA 219) 02 Feb 02:39:50 02:43:16 20° 257° (WSW) 02:46:35 437.305
GONETS M04 02 Feb 02:48:29 02:57:01 53° 291° (WNW) 03:05:30
RS-15 02 Feb 02:49:49 02:54:26 14° 95° (E) 02:59:50 29.354- 29.394
KKS-1 02 Feb 02:52:22 02:56:38 40° 262° (W) 03:00:55 437.445
HORYU 2 02 Feb 02:53:34 02:55:55 14° 86° (E) 02:58:26 437.375
DANDE 02 Feb 03:02:44 03:09:30 28° 83° (E) 03:16:17 436.750
PCSat 02 Feb 03:07:48 03:11:09 17° 107° (ESE) 03:14:41 145.827
CUSAT 1 02 Feb 03:10:30 03:17:42 34° 87° (E) 03:24:40 437.405
BEESAT 2 02 Feb 03:10:32 03:14:41 70° 316° (NW) 03:18:54 435.950
BEESAT 3 02 Feb 03:20:46 03:24:50 54° 319° (NW) 03:28:58 437.485
MOZHAYETS 4 02 Feb 03:22:58 03:26:50 28° 63° (ENE) 03:30:46
